• Processing (Info)

  • MPEC 2023-P42 : 2023 PG

    The following Minor Planet Electronic Circular may be linked-to from your own Web pages, but must not otherwise be redistributed electronically.

    A form allowing access to any MPEC is at the bottom of this page.


    Read MPEC 2023-P41 Read MPEC 2023-P43


    M.P.E.C. 2023-P42                                Issued 2023 August 8, 19:29 UT
    
         The Minor Planet Electronic Circulars contain information on unusual
             minor planets, routine data on comets and natural satellites,
             and occasional editorial announcements.  They are published
        on behalf of Division F of the International Astronomical Union by the
              Minor Planet Center, Smithsonian Astrophysical Observatory,
                              Cambridge, MA 02138, U.S.A.
    			  
                 Prepared using the Tamkin Foundation Computer Network
    
                                  MPC@CFA.HARVARD.EDU
                URL https://www.minorplanetcenter.net/    ISSN 1523-6714
    
                                     2023 PG                                 
    
    
    Observations:
         K23P00G*KC2023 08 07.84395 20 26 52.40 +02 38 53.0          19.5 GXEP042L51
         K23P00G KC2023 08 07.84523 20 26 52.33 +02 39 05.0          19.5 GXEP042L51
         K23P00G KC2023 08 07.84652 20 26 52.29 +02 39 16.6          19.7 GXEP042L51
         K23P00G KC2023 08 07.89473 20 26 52.66 +02 46 54.9          19.8 GVEP042104
         K23P00G KC2023 08 07.89900 20 26 50.00 +02 47 34.3          19.7 GXEP042L51
         K23P00G KC2023 08 07.90087 20 26 49.94 +02 47 51.8          19.7 GXEP042L51
         K23P00G KC2023 08 07.90275 20 26 49.89 +02 48 09.1          19.6 GXEP042L51
         K23P00G KC2023 08 07.90787 20 26 52.09 +02 48 58.7          19.3 GVEP042104
         K23P00G KC2023 08 07.90888820 26 51.68 +02 49 06.6                XEP042L01
         K23P00G KC2023 08 07.91099320 26 51.60 +02 49 26.2          19.7 GXEP042L01
         K23P00G KC2023 08 07.91294820 26 51.48 +02 49 45.4          19.5 GXEP042L01
         K23P00G KC2023 08 07.91467820 26 51.44 +02 50 01.9          19.9 GXEP042L01
         K23P00G KC2023 08 07.91636520 26 51.40 +02 50 17.7          19.6 GXEP042L01
         K23P00G hC2023 08 07.91973920 26 52.447+02 50 40.27         19.8 GVEP042J95
         K23P00G hC2023 08 07.93654420 26 51.823+02 53 21.77               VEP042J95
         K23P00G KC2023 08 07.99262 20 26 48.36 +03 02 20.6          19.3 GVEP042K51
         K23P00G KC2023 08 07.99918 20 26 48.08 +03 03 23.2          19.8 GVEP042K51
         K23P00G KC2023 08 08.00575 20 26 47.84 +03 04 25.6          20.2 GVEP042K51
         K23P00G KB2023 08 08.01611920 26 48.48 +03 06 06.8          18.9 GXEP042I93
         K23P00G KB2023 08 08.02159820 26 48.24 +03 06 58.9          19.4 GXEP042I93
         K23P00G KB2023 08 08.02694420 26 48.04 +03 07 49.7          19.9 GXEP042I93
         K23P00G KB2023 08 08.08251920 26 50.220+03 18 49.17         18.8 GXEP042Y05
         K23P00G KB2023 08 08.09063220 26 49.718+03 20 07.49         20.4 GXEP042Y05
         K23P00G KB2023 08 08.09845520 26 49.344+03 21 21.72         19.0 GXEP042Y05
         K23P00G KC2023 08 08.14856120 26 51.88 +03 27 20.3                uEP042H21
         K23P00G KC2023 08 08.15628020 26 51.55 +03 28 34.1          21.0 VuEP042H21
         K23P00G KC2023 08 08.15820920 26 51.45 +03 28 53.0          20.6 VuEP042H21
         K23P00G  C2023 08 08.41495220 26 43.034+04 10 13.33         19.8 GVEP042654
         K23P00G  C2023 08 08.41896120 26 42.879+04 10 52.08         19.8 GVEP042654
         K23P00G KC2023 08 08.77367 20 26 49.12 +05 08 12.5          20.5 GXEP042L51
         K23P00G KC2023 08 08.77667 20 26 49.00 +05 08 42.3          20.2 GXEP042L51
         K23P00G KC2023 08 08.77966 20 26 48.94 +05 09 11.8          20.3 GXEP042L51
    
    Observer details:
    104 San Marcello Pistoiese.  Observers P. Bacci, M. Maestripieri, A. Aventini.
        Measurer P. Bacci.  0.60-m f/4 reflector + CCD.
    654 Table Mountain Observatory, Wrightwood-PHMC.  Observers N. Evans, P. Choi,
        N. Saini, C. Zhai, R. Trahan, M. Shao.  1.0-m Reflector + CCD.
    H21 Astronomical Research Observatory, Westfield.  Observer R. Holmes.
        Measurers T. Linder, R. Holmes, L. Horn.  0.76-m f/3.0 astrograph + CCD.
    I93 St Pardon de Conques.  Observer F. Losse.  0.40-m f/3.7 reflector + CMO.
    J95 Great Shefford.  Observer P. Birtwhistle.  0.41-m f/6.3 Schmidt-Cassegrain
        + CCD.
    K51 Osservatorio del Celado, Castello Tesino.  Observer M. Campestrin.  0.80-m
        f/4 reflector + CCD.
    L01 Visnjan Observatory, Tican.  Observers K. Korlevic, P. Dusevic, L. Gelo,
        L. Ilisevic, I. Paleka, E. Pettarin, L. Poropat, V. Srdic.  Measurer I.
        Paleka.  1.0-m f/2.9 reflector + CCD.
    L51 MARGO, Nauchnyi.  Observer G. Borisov.  0.50-m f/1.9 reflector + CCD.
    Y05 SONEAR Wykrota-CEAMIG, Serra da Piedade.  Observer C. Jacques.  0.45-m
        f/2.9 reflector + CMO.
    
    Orbital elements:
    2023 PG                                                  Earth MOID = 0.0643 AU
    Epoch 2023 Sept. 13.0 TT = JDT 2460200.5                Veres                   
    M 356.98873              (2000.0)            P               Q                  
    n   0.58998935     Peri.   53.14475     +0.99291227     +0.03971640             
    a   1.4079047      Node   304.31658     -0.08762971     +0.88135708             
    e   0.2766320      Incl.    7.79474     +0.08028864     +0.47077841             
    P   1.67           H   24.57          G   0.15           U   8                  
    Residuals in seconds of arc
    230807 L51  0.5-  0.3+    230807 L01  0.0   0.1+    230808 Y05  1.0-  0.4+
    230807 L51  0.8-  0.2+    230807 L01  0.5+  0.1-    230808 Y05  0.2-  0.2-
    230807 L51  0.6-  0.4-    230807 J95  0.4-  0.1+    230808 H21  0.0   0.4+
    230807 104  0.8+  0.5+    230807 J95  0.4-  1.9+    230808 H21  0.0   0.1+
    230807 L51  1.0-  0.3+    230807 K51  0.1-  0.3-    230808 H21  0.3-  0.5+
    230807 L51  0.7-  0.0     230807 K51  0.3-  0.1-    230808 654  0.2+  0.1-
    230807 L51  0.2-  0.5-    230808 K51  0.0   0.1-    230808 654  0.1+  0.1-
    230807 104  0.6+  0.3-    230808 I93  0.3-  0.2-    230808 L51  0.2-  0.0
    230807 L01  0.1-  0.2-    230808 I93  0.5-  0.3-    230808 L51  0.5-  0.2+
    230807 L01  0.0   0.6-    230808 I93  0.1-  0.4-    230808 L51  0.3+  0.3+
    230807 L01  0.5-  0.1+    230808 Y05  0.2-  0.4-
    
    Ephemeris:
    2023 PG                  a,e,i = 1.41, 0.28, 8                   q = 1.0184
    Date    TT    R. A. (2000) Decl.     Delta      r    Elong.  Phase     V
    2023 07 09    20 28 00.5 -34 12 17   0.1770  1.1839   159.3    17.6    22.1
    ...
    2023 07 24    20 29 07.0 -23 58 51   0.1129  1.1283   174.2     5.2    20.5
    ...
    2023 08 01    20 27 51.4 -12 33 13   0.08718 1.1017   173.3     6.1    20.0
    ...
    2023 08 07    20 26 57.0 +00 29 33   0.07324 1.0835   160.4    18.3    20.0
    2023 08 08    20 26 50.1 +03 04 47   0.07147 1.0807   157.9    20.7    20.0
    2023 08 09    20 26 44.3 +05 46 36   0.06990 1.0779   155.3    23.2    20.1
    ...
    2023 08 15    20 26 45.2 +23 38 00   0.06454 1.0622   138.5    39.2    20.3
    ...
    2023 08 23    20 29 51.4 +47 09 29   0.06827 1.0446   117.4    59.3    21.0
    ...
    2023 09 07    21 01 01.4 +75 05 08   0.09526 1.0233    96.6    78.1    22.2
    
    M. P. C. Staff               (C) Copyright 2023 MPC           M.P.E.C. 2023-P42
    


    Read MPEC 2023-P41 Read MPEC 2023-P43


    MPEC number:

    Enter an MPEC number in one of the following forms:

    • 1997-B01 (the full form)
    • J97B01 (the packed version of the full form)
    • B01 (the abbreviated form)